This demonstration page uses our WeatherBlox Daily Observations layout. Learn more.

41.55636, -103.73856

Hourly Observations for May 6, 2015

Temp ( °F °C ) Dew Point ( °F °C ) Humidity (%) Winds ( mph kmh ) Pressure ( in mb ) Visibility ( mi km ) Precip ( " mm )
12:53 am 00:53 Cloudy with Light Rain 52 11 N/A N/A ESE 13 20 29.68 1005 6 9.656064 0.001 0.001
1:53 am 01:53 Cloudy with Light Rain 52 11 N/A N/A ESE 9 15 29.68 1005 6 9.656064 0.03 0.762
2:08 am 02:08 Cloudy with Light Rain 52 11 N/A N/A ESE 12 19 29.62 1003 5 8.04672 0 0
2:53 am 02:53 Cloudy with Light Rain 54 12 54 12 100 100 E 7 11 29.62 1003 3 4.828032 0.03 0.762
3:53 am 03:53 Cloudy with Light Rain 54 12 54 12 100 100 E 8 13 29.62 1003 5 8.04672 0.02 0.508
4:07 am 04:07 Cloudy with Mist and Fog 54 12 54 12 100 100 E 8 13 29.62 1003 6 9.656064 0.001 0.001
4:23 am 04:23 Cloudy 54 12 54 12 100 100 E 7 11 29.62 1003 7 11.265408 0.001 0.001
4:53 am 04:53 Cloudy with Light Rain 54 12 54 12 100 100 E 8 13 29.62 1003 5 8.04672 0.001 0.001
5:16 am 05:16 Cloudy with Light Rain 54 12 54 12 100 100 E 6 9 29.62 1003 2 3.218688 0.03 0.762
5:27 am 05:27 Cloudy with Light Rain 54 12 54 12 100 100 E 7 11 29.62 1003 4 6.437376 0 0
5:53 am 05:53 Cloudy 54 12 54 12 100 100 E 6 9 29.62 1003 10 16.09344 0.04 1.016
6:44 am 06:44 Cloudy with Light Rain 54 12 52 11 94 94 ESE 9 15 29.62 1003 2.5 4.02336 0 0
6:51 am 06:51 Cloudy 54 12 52 11 94 94 ESE 12 19 29.62 1003 10 16.09344 0.01 0.254
6:53 am 06:53 Cloudy 54 12 52 11 94 94 ESE 12 19 29.62 1003 10 16.09344 0.01 0.254
7:35 am 07:35 Cloudy with Mist and Fog 54 12 52 11 94 94 E 13 20 29.62 1003 3 4.828032 0 0
7:42 am 07:42 Cloudy with Mist and Fog 54 12 52 11 94 94 ESE 10 17 29.62 1003 2.5 4.02336 0 0
7:49 am 07:49 Cloudy with Mist and Fog 54 12 52 11 94 94 ESE 13 20 29.62 1003 4 6.437376 0 0
7:53 am 07:53 Cloudy with Mist and Fog 54 12 52 11 94 94 ESE 12 19 29.62 1003 5 8.04672 0 0
8:51 am 08:51 Cloudy 55 13 54 12 94 94 ESE 12 19 29.59 1002 10 16.09344 0.001 0.001
8:53 am 08:53 Cloudy 55 13 54 12 94 94 ESE 12 19 29.59 1002 10 16.09344 0.001 0.001
9:51 am 09:51 Cloudy 57 14 52 11 82 82 ESE 7 11 29.59 1002 10 16.09344 0 0
9:53 am 09:53 Cloudy 57 14 52 11 82 82 SE 8 13 29.59 1002 10 16.09344 0 0
10:38 am 10:38 Cloudy 59 15 52 11 77 77 E 7 11 29.56 1001 10 16.09344 0 0
10:53 am 10:53 Cloudy 61 16 54 12 77 77 E 8 13 29.53 1000 10 16.09344 0 0
11:26 am 11:26 Cloudy 57 14 52 11 82 82 E 10 17 29.56 1001 10 16.09344 0 0
11:53 am 11:53 Cloudy 59 15 52 11 77 77 ESE 7 11 29.53 1000 10 16.09344 0 0
12:30 pm 12:30 Cloudy 61 16 52 11 72 72 N 7 11 29.53 1000 10 16.09344 0 0
12:43 pm 12:43 Cloudy 61 16 52 11 72 72 ESE 6 9 29.53 1000 10 16.09344 0 0
12:53 pm 12:53 Cloudy 63 17 52 11 68 68 NE 6 9 29.5 999 10 16.09344 0 0
1:35 pm 13:35 Cloudy with Light Rain 57 14 54 12 88 88 N 6 9 29.53 1000 2.5 4.02336 0.001 0.001
1:43 pm 13:43 Cloudy with Light Rain 57 14 54 12 88 88 Calm 29.53 1000 2 3.218688 0.01 0.254
1:53 pm 13:53 Cloudy with Light Rain 59 15 54 12 82 82 undefined N/A 29.5 999 6 9.656064 0.02 0.508
2:13 pm 14:13 Cloudy 57 14 54 12 88 88 NW 9 15 29.53 1000 10 16.09344 0.001 0.001
2:39 pm 14:39 Cloudy with Light Rain 57 14 54 12 88 88 NW 6 9 29.53 1000 6 9.656064 0.001 0.001
2:53 pm 14:53 Cloudy with Light Rain 59 15 54 12 82 82 NW 6 9 29.5 999 9 14.484096 0.001 0.001
3:53 pm 15:53 Cloudy with Light Rain 57 14 54 12 88 88 N 10 17 29.53 1000 8 12.874752 0.02 0.508
4:53 pm 16:53 Cloudy with Light Rain 57 14 55 13 94 94 NNE 8 13 29.53 1000 5 8.04672 0.01 0.254
5:41 pm 17:41 Cloudy with Light Rain 57 14 54 12 88 88 NW 8 13 29.56 1001 2.5 4.02336 0.05 1.27
5:48 pm 17:48 Cloudy with Light Rain 59 15 54 12 82 82 NW 10 17 29.53 1000 10 16.09344 0 0
5:53 pm 17:53 Cloudy with Light Rain 59 15 54 12 82 82 NW 10 17 29.53 1000 10 16.09344 0.06 1.524
6:53 pm 18:53 Cloudy 57 14 54 12 88 88 NW 12 19 29.56 1001 10 16.09344 0.01 0.254
7:34 pm 19:34 Cloudy 55 13 52 11 88 88 NW 22 35 29.59 1002 10 16.09344 0 0
7:53 pm 19:53 Cloudy 54 12 48 9 82 82 NW 22 35 29.62 1003 10 16.09344 0.001 0.001
8:53 pm 20:53 Cloudy with Light Rain 50 10 45 7 82 82 NW 23 37 29.68 1005 10 16.09344 0.001 0.001
9:53 pm 21:53 Cloudy 50 10 45 7 82 82 NW 23 37 29.71 1006 10 16.09344 0.001 0.001
10:53 pm 22:53 Cloudy 50 10 45 7 82 82 WNW 17 28 29.74 1007 10 16.09344 0 0
11:53 pm 23:53 Cloudy with Light Rain 48 9 45 7 87 87 WNW 20 31 29.77 1008 3 4.828032 0.01 0.254

Powered by AerisWeather